Lid_Strength_Index
-1 -1 -1 -1 -1 -1 -1 -1 -1 -1 -1 -1 -1 -1 -1 -1 1 0 -0 0 -1 -1 -1 -1 -1 -1 -1 -2 -1 -1 -2 -1 -1
-1 -1 -1 -1 -1 -1 -1 -1 -1 -1 -1 -1 -1 -1 -1 1 1 1 0 -0 -1 -1 -1 -1 -1 -1 -1 -1 -1 -1 -1 -1 -1
-0 -1 -1 -1 -1 -1 -1 -1 -1 -1 -1 -1 -1 -1 -0 0 1 1 1 -1 -1 -1 -1 -1 -1 -1 -1 -1 -1 -1 -1 -1 -1
-1 -1 -1 -1 -1 -1 -1 -1 -1 -1 -1 -1 -1 -1 -0 1 1 0 0 -1 -1 -1 -1 -1 -1 -1 -1 -1 -1 -1 -2 -2 -2
-1 -1 -1 -1 -1 -1 -1 -1 -1 -1 -1 -1 -1 -1 -0 1 0 0 0 -1 -1 -1 -1 -1 -1 -1 -1 -2 -2 -2 -1 -2 -2
2 -0 -1 -1 -1 -1 -1 -1 -1 -1 -0 -1 -1 0 1 1 1 0 -1 -1 -1 -1 -1 -2 -1 -1 -1 -1 -1 -2 -2 -1 -2
3 2 1 1 1 0 -0 -1 -0 1 1 1 -0 1 1 1 1 0 -1 -1 -1 -1 -1 -1 -1 -1 -1 -1 -0 -1 -1 -1 -1
5 5 5 5 3 4 4 3 2 2 1 1 1 1 1 1 -0 0 -1 -1 -1 -1 -1 -1 -1 -1 -1 -1 -0 0 -1 -1 -1
7 6 6 6 6 5 5 5 4 4 2 2 1 0 -0 1 0 0 -0 -1 -1 -1 -1 -1 -1 -1 -1 -1 -1 -1 -0 -1 -1
7 7 7 7 7 7 6 5 5 5 5 4 4 3 2 0 -1 -1 -0 -1 -1 -1 -1 -1 -1 -1 -1 -1 -1 -1 -1 -1 -1
8 8 8 8 8 7 7 6 7 7 5 5 4 4 3 2 1 1 -0 -1 -1 -1 -1 -1 -1 -1 -1 -1 -0 -0 -1 -1 -0
9 9 9 9 9 8 8 8 7 7 6 5 4 2 2 2 3 4 4 3 2 1 -1 -1 -1 -1 -2 -1 -0 -1 -0 -0 -0
10 10 10 9 9 9 9 9 8 8 7 4 3 2 2 2 3 4 5 5 5 4 2 0 -1 -0 -0 -0 -0 0 -0 -0 -0
11 11 11 10 10 10 10 9 9 9 7 4 4 4 4 4 4 5 5 6 6 6 4 4 2 1 -1 -1 -1 -0 -1 -0 -1
12 12 11 11 11 11 10 10 9 9 9 6 6 6 6 5 6 6 5 6 6 6 6 6 6 3 1 -0 -0 -1 -1 -1 -1
13 13 12 12 12 12 11 11 11 10 10 9 8 7 7 7 7 6 7 7 6 7 7 6 6 6 4 2 0 0 -1 -1 -1
13 13 13 13 13 13 12 11 12 12 11 11 10 11 8 8 7 8 8 8 8 8 8 7 7 7 6 5 2 1 -0 -1 -1
13 13 13 13 12 13 13 12 12 13 12 12 11 12 13 11 7 9 9 9 10 10 9 9 8 7 7 6 4 2 1 -1 -1
13 13 13 14 13 13 13 12 13 12 13 12 11 11 10 12 13 8 10 10 10 11 10 10 9 9 8 7 5 3 1 0 -1
14 14 14 14 14 14 13 13 13 13 13 13 13 13 12 12 12 14 12 11 11 11 11 11 10 10 9 9 7 4 2 0 -0